Regional Weather Roundup
Issued by NWS

Home | Current Version | Previous Version | Graphics & Text | Print | Product List | Glossary On
Versions: 1 2 3 4 5 6 7 8 9 10 11 12 13 14 15 16 17 18 19 20 21 22 23 24 25 26 27 28 29 30 31 32 33 34 35 36 37 38 39 40 41 42 43 44 45 46 47 48 49 50
216
ASUS45 KTFX 240210
RWRMT
MONTANA REGIONAL WEATHER ROUNDUP
NATIONAL WEATHER SERVICE GREAT FALLS MT
800 PM MDT TUE MAY 23 2017

NOTE: "FAIR" INDICATES FEW OR NO CLOUDS BELOW 12000 FEET WITH NO
SIGNIFICANT WEATHER AND/OR OBSTRUCTIONS TO VISIBILITY.

MTZ001>007-043-240300-
WEST OF THE DIVIDE

CITY           SKY/WX    TMP DP  RH WIND       PRES   REMARKS
KALISPELL      SUNNY     80  43  26 W7        29.69F
MISSOULA       SUNNY     77  43  29 SW7       29.80F
BUTTE          CLEAR     75  34  22 W8        29.93F
MULLAN PASS    SUNNY     60  27  28 SW10G21   29.95F
ANACONDA         N/A     75  34  22 W6        29.90F
DEER LODGE       N/A     79  46  31 CALM      29.90F
EUREKA           N/A     81  39  22 S7        29.68F
HAMILTON         N/A     81  39  22 SW7       29.84F
PLAINS           N/A     81  36  19 SW17      29.78F
RONAN            N/A     77  49  37 S5        29.84F
THOMPSON FALLS   N/A     80  35  19 S17       29.80
$$

MTZ008-052>055-240300-
SOUTHWEST MONTANA

CITY           SKY/WX    TMP DP  RH WIND       PRES   REMARKS
BOZEMAN        CLEAR     72  53  51 E5        29.87F
DILLON         CLEAR     72  37  28 W8        29.93F
W YELLOWSTONE  CLEAR     64  36  34 SW10G17   30.07F
ENNIS          CLEAR     72  37  28 SW8       29.99F
THREE FORKS      N/A     75  50  41 E2        29.87F
$$

MTZ009-010-012-014-046-048-049-054-240300-
EAST SLOPES AND CENTRAL MONTANA

CITY           SKY/WX    TMP DP  RH WIND       PRES   REMARKS
CUT BANK       CLOUDY    71  39  31 SW12      29.72F
GREAT FALLS    CLEAR     70  49  47 SW8       29.74F
MALMSTROM AFB  CLEAR     70  52  53 S9        29.74F
HELENA         CLEAR     79  45  29 CALM      29.80F
CHOTEAU          N/A     72  45  37 CALM      29.76F
CONRAD           N/A     76  51  41 SW5       29.78F
$$

MTZ011-013-016-021-045-047-050-051-240300-
NORTH CENTRAL MONTANA

CITY           SKY/WX    TMP DP  RH WIND       PRES   REMARKS
HAVRE          CLEAR     78  44  29 S12       29.69F
LEWISTOWN      CLEAR     70  45  40 CALM      29.82F
N BAR RANCH      N/A     64  43  45 S16G23    29.90F
CHINOOK          N/A     75  43  31 SE9       29.70F
$$

MTZ017>020-022>027-061-062-240300-
NORTHEAST MONTANA

CITY           SKY/WX    TMP DP  RH WIND       PRES   REMARKS
GLASGOW        PTCLDY    68  31  25 SE15      29.82F
JORDAN           N/A     70  29  21 S14       29.85F
SIDNEY         CLOUDY    66  34  30 S9        29.91F
WOLF POINT     CLOUDY    71  31  22 S8        29.86F
MALTA          CLEAR     72  37  28 S8        29.75F
PLENTYWOOD       N/A     66  30  26 SE13      29.89F
POPLAR           N/A     70  34  26 SE7       29.87F
SCOBEY           N/A     66  30  26 S6        29.86F
$$

MTZ028>42-056>058-240300-
SOUTHCENTRAL AND SOUTHEAST MONTANA

CITY           SKY/WX    TMP DP  RH WIND       PRES   REMARKS
BAKER          CLOUDY    59  36  42 SE9       29.98F
BILLINGS       CLOUDY    67  41  38 SE14G23   29.88F
LIVINGSTON     CLEAR     72  44  36 SW8       29.88F
MILES CITY     CLOUDY    67  32  27 S10       29.92F
BIG TIMBER     CLEAR     68  48  49 SE6       29.91F
EKALAKA          N/A     57  34  42 SE5       29.98
FORSYTH          N/A     64  39  39 SE3       29.90F
LAUREL           N/A     67  40  37 NE2       29.89F
ROUNDUP          N/A     68  38  33 SE8       29.80F
$$

REGIONAL REPORTS...DAKOTAS

CITY           SKY/WX    TMP DP  RH WIND       PRES   REMARKS
WILLISTON      PTCLDY    66  35  31 SE10      29.92F
MINOT          PTCLDY    60  34  37 SE7       29.95F
DICKINSON      CLEAR     56  34  43 E5        29.97F
BEACH            N/A     59  36  41 SE9       29.99F
TIOGA            N/A     63  32  31 S13       29.96F
WATFORD CITY     N/A     63  34  34 SE9       29.94F
BISMARCK       CLEAR     57  38  48 E7        29.99S
GRAND FORKS    PTCLDY    57  43  59 E6        29.95S
FARGO          CLOUDY    56  44  64 NE9       29.94S
BUFFALO SD       N/A     59  36  42 E9        29.94F
RAPID CITY     CLEAR     52  36  54 NE7       30.02F
$$

REGIONAL REPORTS...WYOMING/IDAHO/WASHINGTON

CITY           SKY/WX    TMP DP  RH WIND       PRES   REMARKS
GILLETTE       CLOUDY    56  47  71 SE5       30.02F
SHERIDAN       CLEAR     60  40  47 SE6       29.97F
BUFFALO WY     CLOUDY    57  36  45 S9        30.03F
CODY           CLOUDY    65  35  33 SE10      29.98F
YELLOWSTONE LA   N/A     56  35  45 CALM      30.17F
IDAHO FALLS    CLEAR     73  39  29 S14       30.00F
SALMON         CLEAR     75  50  41 W6        29.84F
BOISE          SUNNY     84  36  18 E7        29.89F
SPOKANE        MOSUNNY   80  42  25 SW16      29.75F
$$

REGIONAL REPORTS...ALBERTA

CITY           SKY/WX    TMP DP  RH WIND       PRES   REMARKS
EDMONTON       SUNNY     81  36  19 S7        29.38F
CALGARY        PTSUNNY   79  34  19 SW9G21    29.52F
LETHBRIDGE     MOSUNNY   75  45  33 SW17      29.60F
MEDICINE HAT   MOCLDY    79  45  29 S9        29.56F
WATERTON GATE    N/A     72  39  30 SW10G18     N/A
CARDSTON         N/A     75  41  29 SW14G22     N/A
MILK RIVER       N/A     75  43  31 SW9         N/A
ONEFOUR          N/A     73  45  35 S8          N/A
$$

REGIONAL REPORTS...SASKATCHEWAN

CITY           SKY/WX    TMP DP  RH WIND       PRES   REMARKS
SWIFT CURRENT  CLEAR     68  30  24 S21       29.71F
REGINA         PTCLDY    70  30  23 S15G22    29.79F
SASKATOON      MOCLDY    72  32  23 S18G25    29.66F
CYPRESS HILLS    N/A     64  37  36 S12         N/A
VAL MARIE        N/A     68  28  22 S12         N/A
ROCKGLEN         N/A     61  32  33 S13         N/A
ASSINIBOIA       N/A     79  39  24 SE9         N/A
$$




USA.gov is the U.S. government's official web portal to all federal, state and local government web resources and services.